Back to catalog

COSMOS 2618

AliveMilitarySSO
NORAD 68829·PAYLOAD·🇷🇺 Russia

Launched Apr 23, 2026 from Plesetsk Cosmodrome

Loading…

Next Passes (next 24 hours)

TLE

FreshSource: Space-Track

Epoch: Sep 14, 2026, 12:52 UTC

1 68829U 26090D   26257.53640052  .00035222  22503-5  14272-3 0  9997
2 68829  96.6364 172.7046 0014898  60.1004 300.1746 15.86368454 22822

Track COSMOS 2618 in real time with AllMySat

Download on the App Store